Location: Dürabuch
(48.2640°N, 11.2185°E)
Time: 22:04:59
(UTC+00:00)

Cosmos 1980 Rocket - Pass Details

Date: 23 May 2024
Orbit: 827 x 851 km, 71.0° (Epoch: 14 June)

Event Time Altitude Azimuth Distance (km) Brightness Sun altitude
Rises 01:05:32 0° 321° (NW) 3,427 5.7 -16.6°
Reaches altitude 10° 01:08:34 10° 306° (NW) 2,486 4.7 -16.3°
Maximum altitude 01:12:38 20° 260° (W) 1,846 3.6 -16.0°
Enters shadow 01:13:53 19° 242° (WSW) 1,913 3.6 -15.9°
